Terminal Aerodrome Forecast
Issued by NWS King Salmon, AK

Home | Current Version | Previous Version | Text Only | Print | Product List | Glossary On
Versions: 1 2 3 4 5 6 7 8 9 10 11 12 13 14 15 16 17 18 19 20 21 22 23 24 25 26 27 28 29 30 31 32 33 34 35 36 37 38 39 40 41 42
703
FTAK31 PANC 191406 AAA
TAFAKN
TAF AMD
PAKN 191406Z 1914/2012 26016G24KT 6SM -SHSN BR FEW010 BKN060 OVC080
     FM192200 30012G20KT 4SM -SHSN BR SCT008 BKN015 OVC025
     FM200200 33008KT P6SM VCSH SCT025 BKN060 OVC100=

USA.gov is the U.S. government's official web portal to all federal, state and local government web resources and services.